Tracking 35055 objects as of 18-Aug-2026
HD Live streaming from Space Station
objects crossing your sky now

SALYUT 7 DEB


SALYUT 7 DEB is no longer on orbit


NORAD ID: 15368
Int'l Code: 1982-033EH
Launch date: April 19, 1982
Source: Commonwealth of Independent States (former USSR) (CIS)
Launch site: TYURATAM MISSILE AND SPACE COMPLEX (TTMTR)
Decay date: 1985-02-11

Note: This is SATELLITE DEBRIS
Your satellite tracking list
Your tracking list is empty




NASA's NSSDC Master Catalog

Two Line Element Set (TLE):
1 15368U 82033 EH 85042.03354039  .05074988 +54638-4 +93577-3 0  9990
2 15368 051.6334 215.6122 0007131 265.9530 095.3729 16.31423189162640
Source of the keplerian elements: AFSPC